Location: ??????
(55.7522°N, 37.6156°E)
Time: 17:39:02
(UTC+00:00)

Cosmos 2082 Rocket - Pass Details

Date: 14 June 2025
Orbit: 831 x 854 km, 71.0° (Epoch: 12 July)

Event Time Altitude Azimuth Distance (km) Brightness Sun altitude
Rises 22:17:45 0° 324° (NW) 3,417 6.1 -10.3°
Reaches altitude 10° 22:20:17 10° 330° (NNW) 2,482 5.4 -10.2°
Maximum altitude 22:25:50 51° 46° (NE) 1,067 3.2 -10.1°
Drops below altitude 10° 22:31:23 10° 122° (ESE) 2,482 4.5 -9.9°
Sets 22:33:55 0° 128° (SE) 3,417 5.1 -9.8°
